Location: Unspecified
(50.4435°N, 0.0000°E)
Time: 03:57:56
(UTC+00:00)

Iridium 29 - Visible Passes

Search period start: 04 April 2026 00:00
Search period end: 14 April 2026 00:00
Orbit: 768 x 771 km, 86.4° (Epoch: 29 March)

Date Brightness Start Highest point End Pass type
(mag) Time Alt. Az. Time Alt. Az. Time Alt. Az.
4 Apr 6.9 00:41:03 10° NNW 00:44:03 34° NNW 00:44:03 34° NNW visible
4 Apr 7.8 22:26:04 10° NE 22:27:54 13° NE 22:27:54 13° NE visible
5 Apr 6.7 00:04:55 10° N 00:08:12 40° N 00:08:12 40° N visible
5 Apr 7.7 01:46:57 10° NW 01:48:29 14° NW 01:48:29 14° NW visible
5 Apr 6.8 23:28:59 10° N 23:32:20 35° NNE 23:32:20 35° NNE visible
6 Apr 7.3 01:10:01 10° NNW 01:12:38 23° NW 01:12:38 23° NW visible
6 Apr 7.2 22:53:19 10° NNE 22:56:29 25° NE 22:56:29 25° NE visible
7 Apr 6.8 00:33:33 10° NNW 00:36:47 34° NW 00:36:47 34° NW visible
7 Apr 7.6 22:18:04 10° NNE 22:20:38 16° ENE 22:20:38 16° ENE visible
7 Apr 6.5 23:57:21 10° N 00:00:55 45° N 00:00:55 45° N visible
8 Apr 7.8 01:39:53 10° NW 01:41:13 13° WNW 01:41:13 13° WNW visible
8 Apr 6.5 23:21:22 10° N 23:25:04 42° NNE 23:25:04 42° NNE visible
9 Apr 7.3 01:02:38 10° NNW 01:05:22 21° WNW 01:05:22 21° WNW visible
9 Apr 6.9 22:45:36 10° NNE 22:49:14 30° NE 22:49:14 30° NE visible
10 Apr 6.8 00:26:04 10° NNW 00:29:32 33° NW 00:29:32 33° NW visible
10 Apr 7.3 22:10:10 10° NNE 22:13:23 19° ENE 22:13:23 19° ENE visible
10 Apr 6.2 23:49:48 10° N 23:53:41 50° NNW 23:53:41 50° NNW visible
11 Apr 7.9 01:33:09 10° NW 01:33:59 11° WNW 01:33:59 11° WNW visible
11 Apr 7.8 21:35:51 10° NE 21:37:18 11° ENE 21:37:33 11° ENE visible
11 Apr 6.1 23:13:45 10° N 23:17:51 52° NNE 23:17:51 52° NNE visible
12 Apr 7.4 00:55:19 10° NNW 00:58:09 19° WNW 00:58:09 19° WNW visible
12 Apr 6.5 22:37:54 10° N 22:42:01 36° ENE 22:42:01 36° ENE visible
13 Apr 6.8 00:18:36 10° NNW 00:22:19 31° WNW 00:22:19 31° WNW visible
13 Apr 7.1 22:02:21 10° NNE 22:06:11 22° ENE 22:06:11 22° ENE visible
13 Apr 6.1 23:42:16 10° N 23:46:29 51° NW 23:46:29 51° NW visible
